Flag for China Weather past 2 weeks in Tsingtao, Shandong, China

Now
77 °F

Fog.


Feels Like: 78 °F
Forecast: 75 / 83 °F
Wind: 3 mph from Southeast

Location: Qingdao Airport

Current Time: Aug 23, 2014 at 12:14:13 AM

Latest Report: Aug 22, 2014 at 11:00 PM


Visibility: 2 mi

Pressure: 29.80 "Hg

Humidity: 83%

Dew point: 72 °F

Location of TsingtaoLocation

Historic Weather in Tsingtao — Graph

°F

Tsingtao temperature yesterday

Maximum temperature yesterday: 86 °F (at 10:00 AM)
Minimum temperature yesterday: 73 °F (at 5:00 AM)
Average temperature yesterday: 80 °F

Past Weeks' High & Low Weather Summary

 TemperatureHumidityPressure
High90 °F (Aug 11, 2:00 PM)94% (Aug 9, 11:00 PM)29.89 "Hg (Aug 9, 11:00 PM)
Low66 °F (Aug 8, 6:00 AM)31% (Aug 21, 3:00 PM)29.59 "Hg (Aug 10, 2:00 PM)
Average78 °F72%29.77 "Hg
* Reported Aug 7 11:00 PM — Aug 22 11:00 PM, Tsingtao, Weather by CustomWeather, © 2014

Note: Actual official high and low records may vary slightly from our data, if they occured in-between our weather recording intervals... More about our weather records

Advertising

Tsingtao weather history for previous 24 hours

 ConditionsComfort  
Time TempWeatherWind HumidityBarometerVisibility
11:00 PM
Aug 22
77 °FFog.3 mph83%29.80 "Hg2 mi
10:00 PM75 °FFog.3 mph89%29.80 "Hg2 mi
9:00 PM75 °FFog.6 mph89%29.80 "Hg3 mi
8:00 PM77 °FClear.10 mph79%29.80 "Hg4 mi
7:00 PM77 °FClear.8 mph69%29.77 "Hg10 mi
6:00 PM81 °FSunny.10 mph62%29.77 "Hg10 mi
5:00 PM84 °FPassing clouds.8 mph51%29.77 "HgN/A
4:00 PM84 °FSunny.10 mph51%29.77 "Hg10 mi
3:00 PM84 °FSunny.10 mph51%29.77 "Hg10 mi
2:00 PM86 °FClear.10 mph49%29.80 "Hg4 mi
1:00 PM86 °FClear.8 mph55%29.80 "Hg4 mi
12:00 PM86 °FClear.6 mph52%29.83 "Hg4 mi
11:00 AM84 °FClear.3 mph58%29.83 "Hg4 mi
10:00 AM86 °FClear.6 mph52%29.86 "Hg4 mi
9:00 AM84 °FHaze.3 mph58%29.83 "Hg2 mi
8:00 AM81 °FFog.6 mph79%29.83 "Hg2 mi
7:00 AM79 °FFog.6 mph84%29.83 "Hg2 mi
6:00 AM75 °FFog.3 mph89%29.83 "Hg2 mi
5:00 AM73 °FFog.1 mph89%29.83 "Hg1 mi
4:00 AM75 °FFog.1 mph89%29.83 "Hg1 mi
3:00 AM77 °FFog.1 mph83%29.83 "Hg1 mi
2:00 AM75 °FFog.1 mph94%29.83 "Hg1 mi
1:00 AM77 °FFog.6 mph89%29.83 "Hg1 mi
12:00 AM77 °FFog.6 mph89%29.83 "Hg1 mi
Weather by CustomWeather, © 2014

See weather overviewHow to use our weather pages